Temp
13 13 14 14 14 14 14 14 15 15 15 15 15 15 15 15 16 16 16 16 16 16 16 16 16 16 16 16 13 14 15 12 13 16 16 19 20 20 19 18 17 17 16 17 16
13 13 13 14 14 14 14 15 15 15 15 15 15 15 15 15 16 16 16 16 16 16 16 16 16 16 15 14 15 16 17 16 16 12 11 18 19 20 20 19 17 16 16 17 17
13 13 14 14 14 14 15 15 15 15 15 15 15 15 15 15 16 15 16 16 16 16 16 16 14 13 14 15 16 17 17 18 17 14 18 19 19 19 19 20 17 15 15 17 17
13 14 14 14 14 14 14 15 15 15 15 15 15 15 15 15 15 14 14 15 16 16 16 16 14 14 15 15 16 17 18 18 18 18 18 19 19 19 19 19 19 18 14 17 17
13 13 14 14 14 14 15 15 15 15 15 15 16 15 15 15 15 15 15 15 15 15 16 15 13 14 15 16 16 17 18 18 18 18 18 18 18 19 19 19 19 18 15 17 17
13 13 13 14 14 14 15 15 15 16 16 16 16 16 15 15 13 16 16 15 15 15 15 14 13 14 15 15 16 16 17 17 17 17 17 18 18 18 19 19 19 18 17 16 16
13 13 13 14 14 15 15 15 16 16 16 16 16 16 15 15 15 15 16 16 15 15 14 13 13 14 15 15 15 16 16 17 17 17 18 18 18 19 19 19 19 18 17 16 15
13 13 13 14 14 15 15 16 16 16 16 16 16 16 15 16 15 15 15 14 15 14 12 13 13 13 14 14 14 15 15 16 17 18 18 19 19 19 19 19 19 18 17 17 16
13 13 13 14 14 15 15 16 16 16 16 16 15 15 13 15 14 14 15 14 12 12 12 12 12 13 13 14 14 15 16 17 17 18 19 19 19 20 20 19 19 18 18 18 17
13 13 13 14 14 15 15 15 15 15 15 15 15 15 14 13 13 14 14 14 12 12 13 12 12 12 13 14 14 16 17 18 18 19 19 19 19 20 19 19 19 19 19 18 18
12 13 13 13 14 14 15 15 15 15 15 14 12 13 12 13 14 14 14 14 13 12 13 13 13 13 14 15 15 16 16 17 17 17 18 18 18 19 19 19 19 19 19 18 18
12 12 13 13 14 14 14 15 14 14 14 14 13 14 13 14 13 13 13 13 12 13 13 14 14 15 16 16 16 16 16 16 17 17 17 17 17 18 18 18 18 18 18 18 18
11 12 12 13 13 14 14 14 14 14 14 13 12 13 13 13 13 14 13 13 14 14 15 15 16 16 17 17 16 16 17 17 17 17 17 17 17 17 18 18 18 18 18 18 18
11 12 12 13 13 13 13 13 13 13 14 14 13 13 13 13 13 13 13 13 14 15 15 15 16 16 16 16 16 16 17 17 17 16 17 17 18 17 18 18 18 18 18 18 18
11 11 12 12 12 12 13 13 13 13 15 14 14 13 13 13 14 14 13 13 13 14 15 16 16 16 16 16 16 16 16 16 16 16 16 16 17 17 17 17 16 16 17 18 18
10 11 11 12 12 12 12 13 13 12 16 14 14 14 14 14 14 14 13 13 13 14 14 15 15 15 16 15 15 15 15 15 16 16 17 17 15 16 15 15 14 15 16 17 18
10 10 11 11 11 12 12 12 11 14 15 15 15 14 15 15 15 15 14 15 15 14 15 16 17 17 16 15 15 15 16 16 17 18 18 17 16 16 15 14 14 15 15 16 18
10 10 10 11 11 11 11 10 12 16 15 14 13 14 14 15 15 15 14 15 15 14 14 16 17 16 16 15 15 15 16 16 15 17 17 17 16 16 15 14 15 15 14 15 16
9 10 10 11 11 11 11 10 14 14 13 13 13 14 15 15 14 14 14 15 15 14 13 13 15 15 15 15 15 16 16 16 16 16 17 16 15 15 15 15 14 15 14 14 16
9 9 9 10 10 10 9 10 12 13 12 12 13 14 14 15 14 14 15 15 14 13 12 13 13 14 14 15 15 15 15 16 16 16 16 17 14 16 14 14 14 13 14 14 13
8 8 7 8 9 9 8 11 12 12 10 11 12 13 13 13 13 14 14 14 13 12 12 12 13 13 14 14 15 15 15 15 14 13 14 15 15 11 13 11 11 11 12 13 12
8 7 7 7 7 8 9 11 11 11 11 10 11 11 12 12 12 13 13 14 12 11 11 11 11 12 12 13 14 14 13 12 13 12 12 11 13 12 14 11 10 10 10 7 7
7 8 6 7 7 10 11 11 10 10 10 10 11 11 11 11 11 11 12 12 11 11 10 10 10 10 12 14 13 12 13 12 12 11 12 10 13 12 12 12 10 11 9 8 9
6 6 7 7 7 7 8 9 10 10 9 10 10 10 10 10 10 11 11 11 11 11 10 9 9 10 11 12 12 12 13 13 12 13 13 12 12 12 12 12 10 10 10 10 10
5 5 6 7 8 8 8 9 9 10 10 9 9 9 10 10 10 10 10 11 11 11 10 9 10 10 10 11 11 11 12 13 14 13 13 13 12 11 11 11 8 9 8 8 9
4 3 4 5 5 6 7 7 8 8 9 10 9 9 10 10 9 9 9 10 9 9 9 9 9 9 9 10 10 11 12 13 13 13 14 12 9 7 8 9 8 10 6 8 10
2 1 2 4 5 6 7 7 8 8 8 9 9 9 9 9 8 7 7 7 8 8 8 8 9 9 9 10 10 11 12 12 12 11 10 10 7 7 6 8 7 7 7 8 9
Height
3175 3173 3172 3171 3170 3169 3168 3167 3167 3166 3165 3165 3165 3167 3167 3168 3168 3168 3168 3168 3168 3168 3168 3169 3168 3167 3166 3165 3164 3166 3168 3166 3169 3160 3146 3159 3156 3155 3151 3149 3154 3159 3157 3152 3152
3174 3172 3171 3169 3168 3166 3165 3164 3163 3163 3162 3162 3161 3163 3164 3165 3165 3164 3165 3166 3166 3166 3167 3167 3167 3166 3166 3165 3167 3168 3165 3157 3158 3165 3150 3150 3156 3157 3154 3150 3152 3159 3159 3155 3151
3173 3171 3170 3168 3166 3165 3164 3162 3161 3160 3159 3159 3158 3159 3160 3161 3162 3158 3162 3163 3164 3165 3165 3165 3166 3168 3168 3167 3165 3164 3163 3162 3157 3147 3154 3156 3157 3156 3153 3154 3147 3149 3169 3157 3152
3172 3171 3169 3167 3165 3164 3162 3160 3159 3158 3157 3156 3156 3156 3157 3158 3163 3154 3157 3159 3161 3162 3163 3164 3165 3168 3168 3166 3164 3161 3161 3162 3161 3160 3159 3157 3156 3154 3153 3153 3153 3142 3149 3156 3152
3172 3170 3168 3165 3164 3162 3160 3159 3157 3155 3155 3154 3153 3153 3154 3155 3157 3151 3154 3156 3157 3159 3161 3162 3164 3167 3166 3165 3163 3160 3157 3156 3156 3156 3155 3154 3153 3152 3151 3152 3153 3144 3148 3152 3151
3171 3169 3167 3164 3162 3160 3158 3156 3155 3153 3153 3152 3151 3151 3152 3153 3151 3149 3151 3153 3153 3156 3158 3160 3162 3165 3164 3163 3162 3159 3155 3153 3152 3152 3151 3150 3149 3150 3150 3151 3151 3152 3149 3149 3149
3170 3168 3166 3163 3160 3158 3156 3154 3152 3150 3150 3150 3149 3148 3149 3151 3149 3147 3148 3149 3150 3151 3154 3158 3161 3162 3162 3159 3159 3156 3153 3150 3149 3149 3148 3147 3145 3146 3148 3148 3149 3147 3149 3147 3149
3168 3166 3163 3160 3157 3155 3153 3151 3150 3148 3147 3147 3146 3146 3146 3146 3145 3145 3146 3145 3147 3148 3151 3155 3159 3158 3158 3157 3154 3153 3151 3146 3146 3145 3144 3143 3140 3141 3143 3144 3145 3146 3146 3147 3147
3165 3163 3161 3159 3157 3154 3152 3150 3148 3146 3145 3144 3145 3145 3147 3145 3144 3143 3143 3144 3147 3147 3148 3149 3151 3152 3154 3153 3150 3149 3144 3143 3140 3140 3139 3139 3135 3136 3138 3139 3140 3141 3144 3144 3144
3164 3162 3160 3158 3156 3153 3151 3148 3147 3145 3144 3143 3144 3146 3146 3148 3143 3142 3142 3142 3144 3146 3148 3148 3148 3148 3149 3150 3145 3144 3140 3137 3135 3136 3133 3133 3131 3132 3134 3136 3135 3139 3140 3141 3144
3163 3161 3159 3157 3154 3152 3150 3148 3148 3145 3143 3143 3145 3144 3145 3144 3142 3141 3141 3142 3142 3144 3145 3147 3147 3145 3145 3144 3143 3141 3138 3135 3134 3134 3132 3128 3125 3127 3128 3130 3131 3132 3134 3135 3139
3162 3160 3157 3155 3153 3150 3149 3147 3145 3145 3142 3140 3141 3142 3142 3142 3143 3142 3142 3142 3143 3143 3144 3146 3142 3142 3141 3140 3139 3137 3134 3130 3128 3128 3128 3125 3122 3122 3123 3124 3125 3126 3127 3129 3131
3160 3158 3155 3153 3152 3151 3149 3147 3145 3143 3141 3139 3140 3143 3145 3142 3143 3145 3142 3143 3144 3143 3142 3141 3139 3138 3137 3136 3135 3132 3130 3127 3124 3123 3121 3121 3113 3115 3116 3117 3118 3119 3120 3121 3124
3159 3156 3154 3152 3153 3150 3149 3147 3145 3143 3141 3142 3140 3141 3140 3141 3142 3142 3142 3142 3141 3140 3139 3137 3135 3134 3134 3133 3132 3127 3126 3124 3121 3119 3114 3117 3104 3106 3108 3109 3110 3110 3111 3111 3115
3157 3155 3153 3152 3151 3149 3149 3146 3144 3144 3141 3142 3141 3138 3141 3142 3143 3140 3139 3138 3138 3138 3138 3134 3132 3132 3131 3129 3128 3125 3123 3121 3119 3115 3112 3108 3105 3100 3101 3100 3098 3092 3097 3104 3107
3156 3155 3153 3152 3149 3148 3147 3145 3145 3147 3140 3140 3141 3140 3140 3140 3140 3140 3138 3137 3135 3135 3133 3130 3129 3127 3126 3126 3125 3123 3120 3118 3113 3108 3103 3096 3098 3099 3099 3097 3096 3098 3094 3097 3102
3154 3152 3151 3149 3148 3146 3145 3145 3148 3142 3140 3140 3140 3140 3139 3139 3138 3137 3138 3137 3135 3134 3129 3126 3123 3122 3124 3123 3122 3120 3117 3110 3106 3099 3092 3093 3094 3093 3092 3093 3095 3094 3092 3092 3095
3150 3149 3148 3148 3146 3144 3144 3146 3147 3139 3139 3138 3139 3138 3137 3136 3135 3135 3135 3134 3132 3132 3130 3125 3122 3122 3122 3121 3120 3118 3116 3112 3107 3099 3093 3092 3095 3092 3091 3088 3088 3090 3092 3098 3088
3146 3145 3145 3144 3143 3143 3144 3145 3141 3139 3138 3138 3136 3134 3132 3133 3135 3134 3133 3131 3130 3129 3132 3128 3124 3120 3120 3118 3116 3113 3111 3108 3103 3100 3091 3089 3091 3089 3088 3088 3091 3086 3086 3088 3081
3142 3142 3140 3140 3140 3140 3141 3139 3138 3139 3137 3137 3136 3135 3133 3131 3131 3131 3130 3129 3129 3130 3130 3128 3123 3121 3117 3115 3112 3110 3109 3106 3101 3096 3091 3085 3088 3082 3085 3090 3093 3090 3084 3080 3073
3139 3138 3136 3137 3137 3137 3137 3137 3137 3136 3135 3136 3135 3134 3133 3132 3131 3130 3129 3129 3126 3127 3127 3126 3123 3118 3115 3111 3108 3108 3104 3103 3102 3104 3098 3089 3087 3084 3081 3088 3086 3087 3081 3075 3071
3136 3137 3133 3134 3136 3134 3134 3135 3133 3134 3133 3132 3133 3132 3132 3131 3129 3129 3128 3127 3124 3125 3125 3124 3120 3116 3113 3109 3108 3106 3104 3104 3104 3103 3099 3105 3090 3082 3080 3082 3093 3086 3084 3085 3085
3132 3132 3134 3130 3131 3132 3132 3131 3130 3131 3131 3131 3131 3130 3129 3129 3129 3127 3126 3125 3123 3123 3121 3121 3120 3115 3109 3105 3105 3106 3103 3103 3101 3100 3097 3105 3087 3082 3080 3081 3090 3090 3088 3089 3086
3129 3131 3132 3129 3127 3127 3127 3127 3127 3127 3126 3127 3127 3127 3126 3126 3126 3124 3123 3123 3122 3122 3118 3119 3118 3116 3112 3108 3104 3104 3101 3099 3099 3096 3092 3091 3085 3078 3075 3074 3083 3083 3082 3079 3080
3125 3129 3129 3127 3128 3125 3126 3125 3124 3123 3123 3123 3123 3124 3123 3123 3121 3120 3120 3119 3118 3116 3116 3116 3112 3111 3108 3106 3103 3100 3097 3093 3091 3088 3087 3082 3078 3075 3074 3067 3068 3074 3076 3072 3069
3122 3123 3122 3121 3121 3122 3121 3121 3121 3121 3122 3121 3120 3120 3120 3119 3119 3118 3117 3115 3114 3112 3112 3112 3108 3107 3103 3102 3099 3094 3091 3088 3086 3083 3079 3080 3074 3079 3076 3071 3070 3064 3067 3068 3067
3118 3117 3116 3116 3118 3119 3119 3118 3118 3117 3117 3117 3116 3116 3116 3117 3112 3112 3111 3111 3110 3108 3107 3107 3105 3104 3098 3098 3093 3089 3086 3082 3079 3080 3077 3080 3078 3069 3078 3078 3075 3071 3069 3065 3060
Wind_Speed
15 15 16 16 17 17 17 17 18 19 19 19 20 18 17 16 14 13 11 10 11 10 11 13 13 12 12 14 17 18 22 3 9 7 21 7 6 9 3 6 5 5 5 8 7
12 12 12 13 13 14 14 15 16 18 19 19 21 20 20 19 19 19 17 13 11 10 11 10 13 14 14 17 16 16 20 18 18 15 23 12 8 9 8 5 8 8 7 3 8
11 11 11 11 12 12 12 11 12 13 15 17 20 19 20 19 19 25 21 19 15 13 10 9 8 12 15 17 20 21 25 22 18 18 24 15 10 12 10 7 8 5 9 4 4
10 10 10 11 11 12 12 12 12 12 11 13 15 16 17 16 5 16 17 19 20 17 15 12 13 15 18 18 18 25 23 23 24 23 22 18 15 15 10 13 17 19 31 9 3
12 12 12 13 13 11 11 11 12 13 12 11 12 11 13 15 14 27 22 17 16 17 19 14 17 17 18 19 20 23 24 24 23 22 23 22 20 17 15 13 8 4 18 12 10
12 12 13 13 13 12 11 11 11 11 11 11 11 12 12 11 18 23 21 20 23 21 18 14 16 18 19 22 23 23 25 27 26 25 24 24 23 20 18 14 11 8 13 12 13
13 13 13 13 13 13 13 12 11 11 11 10 11 12 13 10 18 22 18 15 21 22 20 15 16 19 19 23 21 23 28 25 23 24 25 22 26 25 21 18 16 12 13 13 15
14 14 14 15 16 16 15 14 12 11 11 10 10 10 10 13 16 17 15 14 14 17 17 14 15 21 23 24 26 27 29 35 27 23 22 21 29 22 21 20 22 10 13 17 15
15 15 14 16 17 16 15 14 12 11 10 8 7 4 2 9 8 9 7 11 11 12 14 16 19 19 19 23 27 24 32 29 26 21 22 24 26 21 19 21 24 19 18 13 14
15 14 14 15 17 16 15 14 12 10 7 3 2 1 7 1 8 7 4 4 9 10 15 16 15 18 20 21 29 26 28 29 31 25 25 24 24 23 21 24 26 20 21 19 19
16 15 14 15 16 15 15 14 12 8 5 6 6 8 7 7 6 7 4 3 4 9 13 13 16 18 17 21 25 28 32 34 32 28 30 32 32 22 23 20 25 27 29 26 26
16 16 15 15 15 15 13 12 10 10 11 10 9 6 10 6 0 5 3 2 7 8 10 13 20 20 20 20 22 25 29 33 33 29 29 31 35 33 29 29 28 28 29 30 29
17 17 17 16 15 13 12 11 10 11 12 7 7 6 6 5 3 5 5 5 9 13 14 17 19 17 18 19 21 25 27 27 28 27 27 29 38 36 34 34 32 35 33 29 30
17 18 17 16 14 13 12 11 10 9 6 6 7 5 7 2 8 11 6 9 10 12 11 15 12 13 15 19 20 26 22 23 25 26 31 25 29 31 31 32 33 35 35 35 30
17 18 18 16 14 13 10 9 7 6 5 5 5 11 5 8 6 9 7 7 12 11 13 18 17 16 17 19 18 23 21 21 23 27 29 30 25 28 21 24 25 21 21 25 26
17 17 18 17 15 13 11 8 5 2 4 2 4 3 6 9 8 7 10 8 7 11 13 17 14 16 16 14 16 16 17 18 21 24 21 28 7 18 24 35 29 33 23 18 27
18 18 17 17 16 13 9 6 6 7 2 2 1 4 8 8 12 11 8 13 9 10 15 14 15 12 8 16 15 15 16 20 17 17 14 17 13 21 25 20 12 15 25 25 24
19 17 16 15 14 12 8 4 7 6 7 5 10 12 14 10 11 13 11 13 11 5 13 14 5 6 5 12 15 17 16 15 17 14 20 27 13 19 18 12 12 15 26 19 18
20 20 17 13 13 11 6 7 8 10 7 9 13 13 12 9 6 8 12 13 9 6 8 13 17 21 13 20 13 20 24 24 20 25 23 17 16 28 10 14 8 25 23 19 12
19 18 20 12 12 9 6 12 14 12 11 11 12 8 11 8 7 10 7 7 6 6 7 14 23 18 20 18 18 21 20 22 24 14 17 12 18 12 10 11 13 23 27 24 9
18 15 16 18 13 13 12 12 10 11 10 5 8 11 11 12 11 11 11 9 2 8 11 15 19 21 15 15 18 17 20 16 16 16 9 15 9 10 4 25 22 17 22 29 38
15 7 17 18 14 10 13 11 12 14 11 9 10 11 12 11 11 12 12 7 2 7 13 13 18 21 22 23 19 15 7 8 6 10 18 23 17 11 14 22 22 18 17 27 12
16 12 14 18 12 11 12 18 15 16 11 12 12 9 10 10 11 9 10 11 12 12 12 10 12 22 19 17 0 15 18 15 16 13 21 13 27 11 14 18 28 22 11 14 17
11 4 6 12 11 15 15 14 14 14 13 15 14 14 13 14 14 16 15 14 14 14 14 15 19 20 22 24 30 26 23 20 17 21 22 27 28 11 17 25 26 15 13 13 15
6 3 9 9 9 10 11 13 15 12 15 11 12 15 15 17 17 16 17 17 15 11 14 14 19 19 23 25 25 27 27 29 28 31 31 33 21 15 21 29 7 12 9 12 12
9 8 12 12 14 16 16 18 16 16 16 16 14 14 15 13 14 18 18 17 16 17 18 16 21 21 27 25 26 29 30 26 28 29 32 19 11 10 14 21 14 20 15 10 8
8 13 14 14 12 13 14 15 16 16 16 18 17 17 13 13 12 14 15 17 21 23 21 19 19 20 28 23 25 28 25 24 19 19 21 18 10 15 20 18 16 16 13 8 11
Wind_Direction
305 303 300 295 291 287 284 280 277 274 273 272 270 266 266 265 266 265 266 268 266 266 256 252 256 271 283 289 280 289 292 89 10 21 316 6 17 18 11 190 136 109 174 30 40
317 315 312 309 304 301 296 290 282 276 273 270 269 269 266 264 264 262 260 261 265 267 271 268 262 263 272 277 281 284 281 255 313 215 337 359 7 335 340 195 160 123 194 23 32
326 326 327 323 317 312 308 300 291 284 275 270 268 268 267 266 269 268 259 259 257 260 264 271 265 255 264 273 274 275 273 288 279 245 326 318 316 326 317 336 201 294 212 272 63
329 329 330 323 317 314 308 302 296 289 288 281 274 268 264 264 253 254 261 258 255 257 258 259 246 249 267 272 274 280 280 283 292 290 298 303 297 305 297 308 303 324 174 276 174
333 334 334 327 321 316 311 304 292 287 286 284 283 275 264 256 253 259 258 260 260 259 256 250 242 250 265 272 279 277 285 289 290 291 291 289 287 287 285 294 321 349 158 270 280
331 331 332 331 329 327 321 314 298 286 282 279 276 271 261 254 240 263 268 260 261 258 257 242 244 252 267 268 272 278 282 284 288 287 287 286 279 273 272 273 273 211 222 253 266
328 330 337 338 339 338 333 328 317 307 296 286 278 269 263 236 250 263 276 264 256 259 253 246 249 253 261 274 275 279 282 282 282 286 283 280 275 264 262 260 260 222 207 226 228
327 333 343 349 345 342 337 333 325 314 305 296 285 275 250 274 262 272 277 281 262 247 251 237 254 260 259 266 271 276 276 280 283 281 280 275 266 269 256 253 254 231 223 217 231
328 334 340 344 344 344 340 335 328 319 309 299 283 264 314 299 285 287 276 246 245 249 236 239 241 252 261 265 275 273 270 274 283 277 275 272 274 267 256 250 245 233 215 220 241
327 329 331 335 339 341 341 339 332 321 313 332 301 131 304 189 277 299 295 270 242 248 257 257 256 258 259 258 262 275 280 282 287 287 286 277 269 264 255 252 252 244 244 240 243
331 329 328 330 332 337 341 341 326 323 314 274 237 251 276 275 289 297 288 253 221 232 245 250 251 254 266 260 267 274 275 277 279 282 286 284 284 279 265 254 247 250 254 246 247
335 336 338 338 336 335 336 339 334 304 298 290 243 241 259 276 273 296 273 152 247 259 265 260 251 263 268 271 274 277 279 280 280 281 278 277 274 271 265 258 254 256 257 254 250
338 341 344 344 342 337 337 339 333 320 309 287 234 232 259 268 249 216 255 256 264 270 266 265 272 276 269 274 278 278 278 287 286 288 281 279 274 269 263 258 256 256 255 253 251
336 340 345 343 336 334 335 337 334 331 319 215 245 286 244 336 280 223 252 250 259 263 272 274 281 275 275 275 282 284 282 282 288 292 289 287 290 278 270 263 254 251 249 246 248
334 337 340 342 339 334 336 337 338 332 297 177 218 240 208 205 272 263 228 271 263 265 271 272 281 281 280 283 287 289 289 287 286 285 286 285 276 279 294 283 290 276 259 233 247
321 326 330 333 335 334 335 337 339 348 242 222 212 304 266 250 260 266 276 277 265 264 273 273 275 266 272 282 286 291 290 288 276 268 263 274 281 299 301 277 306 268 250 262 254
312 317 323 327 327 331 335 342 332 247 290 194 276 269 275 261 256 262 275 269 282 281 303 314 274 257 260 293 288 273 281 275 284 291 294 328 294 299 292 281 272 242 230 286 273
307 308 313 320 322 328 328 0 259 294 282 292 298 290 277 270 246 260 269 280 239 257 308 312 346 6 299 292 289 289 296 290 291 304 310 311 303 300 320 298 284 183 292 288 304
300 302 305 307 317 320 305 251 266 310 309 293 307 281 288 228 251 266 266 267 271 317 315 315 294 306 296 300 275 281 270 278 287 285 287 322 302 303 312 285 259 226 267 286 186
296 301 302 307 313 304 271 254 279 287 286 292 287 289 283 292 253 287 272 286 255 262 289 299 298 297 295 283 272 269 281 287 284 299 289 274 279 271 330 331 297 318 277 259 214
303 310 274 297 301 294 254 259 288 273 276 284 274 278 275 278 276 274 278 280 300 259 293 306 294 302 296 279 298 304 281 280 307 318 307 312 21 20 25 351 327 316 285 281 258
301 298 273 284 288 274 267 274 272 253 274 285 272 272 271 268 274 270 269 266 358 307 301 299 299 296 290 286 293 297 320 325 282 289 302 303 294 303 295 337 328 316 322 358 228
297 285 260 287 265 267 277 263 267 271 257 263 263 273 260 263 275 267 266 266 295 305 296 306 306 310 303 283 39 327 288 305 293 259 285 299 275 249 295 291 313 299 345 323 269
297 313 281 270 284 265 279 270 273 270 260 255 258 260 264 263 266 270 273 273 278 283 280 302 291 274 275 289 303 303 290 277 278 269 277 262 269 309 327 309 290 300 292 267 262
271 233 272 253 253 275 265 269 269 269 257 264 263 257 262 271 272 272 274 275 273 268 291 290 285 280 281 283 289 290 287 278 270 259 257 274 279 318 311 335 297 260 300 277 275
236 272 236 256 282 278 276 273 269 266 259 259 266 272 261 277 265 281 279 275 275 278 284 282 282 285 284 285 285 283 285 281 277 277 276 296 51 334 337 318 335 324 324 299 275
238 272 271 266 276 274 275 275 271 274 261 255 268 259 266 268 279 271 270 272 277 277 274 275 278 285 284 288 289 283 279 283 290 301 292 309 338 319 310 294 286 274 275 284 297